When you browse on this site, cookies collect data to enhance your experience and personalize the content and advertising you see.
Visit our Privacy Policy to learn more. By continuing to use the site, you agree to this use of cookies and data.
  • In Romania
  • List of Countries
  • For 7 days
  • Water Temperature
  • Weather Map
  • Weather Widgets
  • user-avatar
    Login

    Hourly Weather Norwich

    Today, 26 May, Tuesday

    Time Temperature Precipitation Wind Pressure Humidity
    00:00 +12°C° 0 mm 3 mps 773 mmHg 93%
    01:00 +12°C° 0 mm 3 mps 773 mmHg 93%
    02:00 +12°C° 0 mm 3 mps 773 mmHg 94%
    03:00 +13°C° 0 mm 2 mps 773 mmHg 94%
    04:00 +14°C° 0 mm 2 mps 773 mmHg 90%
    05:00 +14°C° 0 mm 2 mps 773 mmHg 87%
    06:00 +15°C° 0 mm 2 mps 773 mmHg 85%
    07:00 +16°C° 0 mm 2 mps 773 mmHg 79%
    08:00 +17°C° 0 mm 2 mps 773 mmHg 72%
    09:00 +18°C° 0 mm 2 mps 774 mmHg 66%
    10:00 +19°C° 0 mm 2 mps 774 mmHg 63%
    11:00 +20°C° 0 mm 2 mps 774 mmHg 59%
    12:00 +21°C° 0 mm 2 mps 774 mmHg 56%
    13:00 +21°C° 0 mm 2 mps 774 mmHg 57%
    14:00 +20°C° 0 mm 2 mps 774 mmHg 58%
    15:00 +20°C° 0 mm 2 mps 774 mmHg 60%
    16:00 +20°C° 0 mm 2 mps 774 mmHg 64%
    17:00 +19°C° 0 mm 2 mps 773 mmHg 68%
    18:00 +18°C° 0 mm 2 mps 773 mmHg 73%
    19:00 +17°C° 0 mm 2 mps 773 mmHg 73%
    20:00 +15°C° 0 mm 1 mps 774 mmHg 73%
    21:00 +14°C° 0 mm 1 mps 774 mmHg 73%
    22:00 +14°C° 0 mm 1 mps 774 mmHg 74%
    23:00 +13°C° 0 mm 1 mps 774 mmHg 74%

    Tomorrow, 27 May, Wednesday

    Time Temperature Precipitation Wind Pressure Humidity
    00:00 +12°C° 0 mm 0 mps 774 mmHg 75%
    01:00 +12°C° 0 mm 0 mps 774 mmHg 75%
    02:00 +13°C° 0 mm 0 mps 774 mmHg 74%
    03:00 +14°C° 0 mm 1 mps 774 mmHg 74%
    04:00 +14°C° 0 mm 1 mps 774 mmHg 75%
    05:00 +15°C° 0 mm 1 mps 774 mmHg 76%
    06:00 +15°C° 0 mm 1 mps 774 mmHg 76%
    07:00 +16°C° 0 mm 1 mps 774 mmHg 76%
    08:00 +16°C° 0 mm 1 mps 774 mmHg 75%
    09:00 +17°C° 0 mm 2 mps 774 mmHg 74%
    10:00 +17°C° 0 mm 2 mps 774 mmHg 73%
    11:00 +18°C° 0 mm 3 mps 774 mmHg 72%
    12:00 +18°C° 0 mm 3 mps 774 mmHg 72%
    13:00 +18°C° 0 mm 3 mps 774 mmHg 71%
    14:00 +18°C° 0 mm 4 mps 774 mmHg 70%
    15:00 +18°C° 0 mm 4 mps 774 mmHg 70%
    16:00 +17°C° 0 mm 4 mps 774 mmHg 72%
    17:00 +16°C° 0 mm 3 mps 774 mmHg 75%
    18:00 +14°C° 0 mm 3 mps 774 mmHg 77%
    19:00 +13°C° 0 mm 3 mps 774 mmHg 82%
    20:00 +12°C° 0 mm 2 mps 774 mmHg 87%
    21:00 +10°C° 0 mm 2 mps 774 mmHg 92%
    22:00 +10°C° 0 mm 2 mps 774 mmHg 90%
    23:00 +10°C° 0 mm 2 mps 774 mmHg 88%

    Day after tomorrow, 28 May, Thursday

    Time Temperature Precipitation Wind Pressure Humidity
    00:00 +10°C° 0 mm 1 mps 774 mmHg 86%
    01:00 +10°C° 0 mm 1 mps 774 mmHg 87%
    02:00 +10°C° 0 mm 1 mps 774 mmHg 88%
    03:00 +9°C° 0 mm 1 mps 774 mmHg 89%
    04:00 +10°C° 0 mm 1 mps 774 mmHg 85%
    05:00 +11°C° 0 mm 1 mps 774 mmHg 82%
    06:00 +12°C° 0 mm 1 mps 774 mmHg 79%
    07:00 +14°C° 0 mm 2 mps 774 mmHg 73%
    08:00 +15°C° 0 mm 2 mps 774 mmHg 67%
    09:00 +16°C° 0 mm 2 mps 774 mmHg 61%
    10:00 +17°C° 0 mm 2 mps 774 mmHg 59%
    11:00 +18°C° 0 mm 2 mps 773 mmHg 58%
    12:00 +18°C° 0 mm 2 mps 773 mmHg 56%
    13:00 +18°C° 0 mm 3 mps 773 mmHg 57%
    14:00 +18°C° 0 mm 3 mps 772 mmHg 57%
    15:00 +19°C° 0 mm 3 mps 772 mmHg 58%
    16:00 +18°C° 0 mm 3 mps 772 mmHg 62%
    17:00 +17°C° 0 mm 3 mps 771 mmHg 66%
    18:00 +16°C° 0 mm 3 mps 771 mmHg 70%
    19:00 +13°C° 0 mm 3 mps 771 mmHg 73%
    20:00 +11°C° 0 mm 3 mps 771 mmHg 76%
    21:00 +10°C° 0 mm 2 mps 771 mmHg 80%
    22:00 +9°C° 0 mm 2 mps 771 mmHg 81%
    23:00 +9°C° 0 mm 2 mps 771 mmHg 82%

    29 May, Friday

    Time Temperature Precipitation Wind Pressure Humidity
    00:00 +9°C° 0 mm 2 mps 770 mmHg 84%
    01:00 +8°C° 0 mm 2 mps 770 mmHg 83%
    02:00 +9°C° 0 mm 1 mps 770 mmHg 83%
    03:00 +9°C° 0 mm 1 mps 770 mmHg 82%
    04:00 +10°C° 0 mm 1 mps 770 mmHg 79%
    05:00 +11°C° 0 mm 1 mps 770 mmHg 76%
    06:00 +13°C° 0 mm 1 mps 770 mmHg 74%
    07:00 +14°C° 0 mm 2 mps 769 mmHg 68%
    08:00 +16°C° 0 mm 2 mps 769 mmHg 62%
    09:00 +17°C° 0 mm 2 mps 769 mmHg 57%
    10:00 +18°C° 0 mm 3 mps 769 mmHg 56%
    11:00 +18°C° 0 mm 3 mps 769 mmHg 55%
    12:00 +19°C° 0 mm 3 mps 769 mmHg 54%
    13:00 +19°C° 0 mm 3 mps 768 mmHg 55%
    14:00 +19°C° 0 mm 3 mps 768 mmHg 56%
    15:00 +19°C° 0 mm 3 mps 768 mmHg 56%
    16:00 +18°C° 0 mm 3 mps 768 mmHg 60%
    17:00 +17°C° 0 mm 3 mps 767 mmHg 64%
    18:00 +16°C° 0 mm 3 mps 767 mmHg 68%
    19:00 +14°C° 0 mm 3 mps 767 mmHg 71%
    20:00 +12°C° 0 mm 3 mps 767 mmHg 74%
    21:00 +10°C° 0 mm 3 mps 767 mmHg 78%
    22:00 +10°C° 0 mm 3 mps 767 mmHg 81%
    23:00 +10°C° 0 mm 2 mps 767 mmHg 84%

    30 May, Saturday

    Time Temperature Precipitation Wind Pressure Humidity
    00:00 +9°C° 0 mm 2 mps 767 mmHg 87%
    01:00 +9°C° 0 mm 2 mps 767 mmHg 89%
    02:00 +9°C° 0 mm 2 mps 767 mmHg 90%
    03:00 +9°C° 0 mm 2 mps 767 mmHg 92%
    04:00 +10°C° 0 mm 2 mps 767 mmHg 89%
    05:00 +12°C° 0 mm 2 mps 767 mmHg 87%
    06:00 +13°C° 0 mm 1 mps 767 mmHg 85%
    07:00 +15°C° 0 mm 2 mps 767 mmHg 80%
    08:00 +16°C° 0 mm 2 mps 767 mmHg 75%
    09:00 +18°C° 0 mm 3 mps 767 mmHg 70%
    10:00 +18°C° 0 mm 3 mps 767 mmHg 68%
    11:00 +19°C° 0 mm 3 mps 766 mmHg 67%
    12:00 +19°C° 0 mm 4 mps 766 mmHg 65%
    13:00 +19°C° 0 mm 3 mps 766 mmHg 66%
    14:00 +19°C° 0 mm 3 mps 766 mmHg 67%
    15:00 +18°C° 0 mm 3 mps 766 mmHg 68%
    16:00 +18°C° 0 mm 3 mps 765 mmHg 71%
    17:00 +17°C° 0 mm 3 mps 765 mmHg 74%
    18:00 +16°C° 0 mm 3 mps 765 mmHg 77%
    19:00 +13°C° 0 mm 3 mps 765 mmHg 82%
    20:00 +12°C° 0 mm 3 mps 765 mmHg 87%
    21:00 +10°C° 0 mm 3 mps 765 mmHg 92%
    22:00 +10°C° 0 mm 3 mps 765 mmHg 92%
    23:00 +10°C° 0 mm 3 mps 765 mmHg 93%

    31 May, Sunday

    Time Temperature Precipitation Wind Pressure Humidity
    00:00 +9°C° 0 mm 2 mps 765 mmHg 94%
    01:00 +9°C° 0 mm 2 mps 765 mmHg 94%
    02:00 +9°C° 0 mm 2 mps 765 mmHg 95%
    03:00 +9°C° 0 mm 3 mps 765 mmHg 95%
    04:00 +11°C° 0 mm 3 mps 765 mmHg 94%
    05:00 +12°C° 0 mm 3 mps 765 mmHg 92%
    06:00 +13°C° 0 mm 3 mps 765 mmHg 91%
    07:00 +14°C° 0 mm 3 mps 765 mmHg 84%
    08:00 +17°C° 0 mm 3 mps 765 mmHg 78%
    09:00 +18°C° 0 mm 3 mps 765 mmHg 71%
    10:00 +19°C° 0 mm 3 mps 765 mmHg 69%
    11:00 +19°C° 0 mm 4 mps 764 mmHg 67%
    12:00 +20°C° 0 mm 4 mps 764 mmHg 65%
    13:00 +19°C° 0 mm 4 mps 764 mmHg 64%
    14:00 +19°C° 0 mm 4 mps 764 mmHg 64%
    15:00 +19°C° 0 mm 4 mps 764 mmHg 64%
    16:00 +19°C° 0 mm 4 mps 763 mmHg 66%
    17:00 +18°C° 0 mm 4 mps 763 mmHg 69%
    18:00 +17°C° 0 mm 4 mps 763 mmHg 72%
    19:00 +14°C° 0 mm 4 mps 763 mmHg 76%
    20:00 +13°C° 0 mm 4 mps 763 mmHg 81%
    21:00 +11°C° 0 mm 3 mps 763 mmHg 86%
    22:00 +11°C° 0 mm 3 mps 763 mmHg 87%
    23:00 +11°C° 0 mm 3 mps 763 mmHg 88%
    Show more